KD8PH Weather Reports


Display with metric or nautical units.
time (UTC)temp
F
wind
direction
speed
MPH
gust
MPH
rain 1hr
in
rain 24hr
in
rain mn
in
humidity
%
barometer
mb
20260502215541 67 23 2.0 4.0 0.00 0.08 0.03 39 1013.3
20260502214534 67 23 4.0 12.0 0.00 0.08 0.03 36 1013.2
20260502213546 66 338 2.0 4.0 0.00 0.08 0.03 36 1013.2
20260502212552 67 45 6.0 11.0 0.00 0.08 0.03 35 1013.1
20260502211535 67 0 3.0 9.0 0.00 0.08 0.03 35 1013.0
20260502210545 67 0 1.0 5.0 0.00 0.08 0.03 36 1013.2
20260502205537 67 68 2.0 8.0 0.00 0.09 0.03 34 1013.2
20260502204537 67 338 3.0 9.0 0.00 0.09 0.03 36 1013.3
20260502203551 66 338 3.0 10.0 0.00 0.09 0.03 35 1013.4
20260502202542 66 338 3.0 6.0 0.00 0.09 0.03 35 1013.5
20260502201539 67 338 5.0 15.0 0.00 0.09 0.03 34 1013.4
20260502200538 67 0 4.0 11.0 0.00 0.10 0.03 35 1013.6
20260502195543 67 45 2.0 8.0 0.00 0.10 0.03 36 1013.6
20260502194535 67 45 4.0 11.0 0.00 0.10 0.03 38 1013.6
20260502193547 66 338 4.0 17.0 0.00 0.10 0.03 37 1013.7
20260502192549 65 45 4.0 10.0 0.00 0.10 0.03 38 1013.7
20260502191544 66 113 3.0 7.0 0.00 0.10 0.03 35 1013.7
20260502190543 66 338 4.0 9.0 0.00 0.11 0.03 39 1013.9
20260502185541 65 0 4.0 12.0 0.00 0.11 0.03 37 1013.9
20260502184549 65 0 3.0 10.0 0.00 0.11 0.03 34 1014.0
20260502183541 65 45 5.0 12.0 0.00 0.11 0.03 37 1014.0
20260502182538 65 45 7.0 20.0 0.00 0.11 0.03 34 1014.1
20260502181544 65 0 3.0 8.0 0.00 0.12 0.03 37 1014.1
20260502180541 64 45 7.0 13.0 0.00 0.12 0.03 39 1014.2
20260502163542 61 68 3.0 6.0 0.00 0.13 0.03 43 1014.8
20260502162534 61 45 4.0 10.0 0.00 0.14 0.03 44 1014.9
20260502161549 60 45 4.0 9.0 0.00 0.14 0.03 49 1014.9
20260502160541 60 0 3.0 7.0 0.00 0.14 0.03 48 1014.9
20260502151536 59 23 3.0 7.0 0.00 0.15 0.03 54 1014.7
20260502150541 59 45 2.0 5.0 0.00 0.15 0.03 52 1014.6
20260502130549 56 0 1.0 3.0 0.01 0.17 0.03 62 1013.9
20260502123537 54 338 1.0 2.0 0.00 0.17 0.02 64 1013.7
20260502122538 54 0 1.0 3.0 0.00 0.17 0.02 64 1013.6
20260502121538 54 0 1.0 2.0 0.00 0.17 0.02 64 1013.6
20260502120534 54 0.0 3.0 0.00 0.17 0.02 64 1013.5
20260502115547 54 338 1.0 2.0 0.00 0.17 0.02 63 1013.3
20260502114545 54 0 1.0 2.0 0.00 0.18 0.02 62 1013.2
20260502113536 53 0 1.0 2.0 0.00 0.18 0.02 64 1013.1
20260502112547 53 45 1.0 2.0 0.00 0.18 0.02 62 1013.0
20260502111534 54 68 1.0 2.0 0.00 0.18 0.02 60 1012.9
20260502110546 54 45 1.0 3.0 0.00 0.18 0.02 59 1013.0
20260502105534 54 45 1.0 3.0 0.00 0.18 0.02 60 1012.9
20260502104554 54 68 1.0 2.0 0.00 0.18 0.02 62 1012.9
20260502103540 54 23 1.0 3.0 0.00 0.19 0.02 60 1013.0
20260502102537 54 0.0 1.0 0.00 0.19 0.02 61 1012.9
20260502101534 54 23 1.0 4.0 0.01 0.19 0.02 59 1012.7
20260502100538 54 338 1.0 3.0 0.01 0.19 0.02 59 1012.7
20260502091534 55 23 2.0 5.0 0.00 0.19 0.01 55 1013.0
20260502090542 55 23 1.0 2.0 0.00 0.19 0.01 56 1012.8
20260502070538 57 68 1.0 4.0 0.01 0.22 0.01 55 1013.2
20260502065550 57 45 2.0 6.0 0.01 0.22 0.01 51 1013.1
20260502064548 57 45 2.0 8.0 0.01 0.22 0.01 50 1013.1
20260502063543 57 45 2.0 4.0 0.01 0.22 0.01 50 1013.1
20260502062547 58 45 3.0 10.0 0.00 0.21 0.00 51 1013.3
20260502061538 58 45 2.0 4.0 0.00 0.22 0.00 52 1013.5
20260502060541 58 0 1.0 3.0 0.00 0.22 0.00 53 1013.4
20260502055550 58 23 2.0 4.0 0.00 0.22 0.00 53 1013.1
20260502054538 58 45 1.0 4.0 0.00 0.22 0.00 54 1013.2
20260502053541 58 23 1.0 3.0 0.00 0.22 0.00 55 1013.1
20260502052539 58 45 1.0 4.0 0.00 0.23 0.00 55 1013.3
20260502051537 59 45 1.0 3.0 0.00 0.23 0.00 60 1013.1
20260502050558 59 23 2.0 3.0 0.01 0.23 0.00 57 1012.9
20260502045536 59 23 2.0 4.0 0.01 0.23 0.23 59 1012.7
20260502044540 59 23 2.0 7.0 0.01 0.24 0.23 62 1012.7
20260502043552 59 45 2.0 5.0 0.01 0.24 0.23 66 1012.7
20260502042545 59 45 2.0 4.0 0.01 0.24 0.23 70 1012.7
20260502041545 60 45 1.0 4.0 0.01 0.24 0.23 69 1012.7
20260502040543 60 0.0 0.0 0.00 0.24 0.22 69 1012.6
20260502035547 60 0.0 0.0 0.00 0.24 0.22 70 1012.7
20260502034545 60 0.0 0.0 0.00 0.24 0.22 71 1012.8
20260502033546 59 0.0 0.0 0.00 0.24 0.22 72 1012.9
20260502032543 59 0.0 0.0 0.00 0.25 0.22 76 1013.0
20260502031553 60 0.0 0.0 0.00 0.25 0.22 78 1013.0
20260502030540 60 0.0 0.0 0.01 0.25 0.22 74 1013.2
20260502025553 60 0.0 0.0 0.01 0.25 0.22 71 1013.3
20260502024544 60 0.0 0.0 0.01 0.26 0.22 73 1013.0
20260502023534 59 0.0 0.0 0.01 0.26 0.22 75 1012.8
20260502022545 60 0.0 0.0 0.01 0.26 0.22 76 1012.8
20260502021548 60 0.0 0.0 0.01 0.26 0.22 76 1012.5
20260502020540 59 0.0 0.0 0.00 0.26 0.21 75 1012.5
20260502015534 60 0.0 0.0 0.00 0.26 0.21 76 1012.5
20260502014536 60 0.0 0.0 0.00 0.26 0.21 77 1012.5
20260502013540 60 0.0 0.0 0.00 0.26 0.21 76 1012.3
20260502012535 60 0.0 0.0 0.01 0.27 0.21 77 1012.4
20260502011534 60 0.0 0.0 0.01 0.27 0.21 75 1012.3
20260502010538 60 0.0 0.0 0.01 0.27 0.21 75 1012.2
20260502005556 60 0.0 1.0 0.01 0.28 0.21 77 1012.0
20260502004543 61 315 1.0 2.0 0.01 0.28 0.21 78 1011.8
20260502003558 61 293 1.0 2.0 0.01 0.28 0.21 77 1011.7
20260502002600 61 338 1.0 2.0 0.00 0.27 0.20 77 1011.6
20260502001552 62 338 1.0 1.0 0.00 0.28 0.20 76 1011.4
20260502000546 62 338 1.0 2.0 0.01 0.28 0.20 76 1011.7
20260501235536 63 315 1.0 2.0 0.01 0.28 0.20 73 1011.4
20260501234537 63 338 1.0 2.0 0.01 0.29 0.20 68 1011.2
20260501233537 63 0.0 1.0 0.01 0.29 0.20 68 1011.3
20260501232540 63 0.0 1.0 0.01 0.29 0.20 67 1011.3
20260501231538 64 0.0 1.0 0.01 0.30 0.20 64 1011.4
20260501230553 64 338 1.0 2.0 0.00 0.29 0.19 62 1011.6
20260501225534 64 0.0 2.0 0.01 0.29 0.19 61 1011.4
20260501224547 65 0 1.0 2.0 0.01 0.30 0.19 57 1011.3
20260501223536 65 0.0 1.0 0.01 0.30 0.19 54 1011.1
20260501222552 65 0.0 1.0 0.01 0.31 0.19 56 1011.1
20260501221547 65 0.0 2.0 0.01 0.31 0.19 56 1011.2
20260501220534 65 45 2.0 4.0 0.01 0.31 0.19 54 1011.0